Startseite
Über Mich
AHP4
Galerie
Sehschlangen
Tourenbuch
Bookmarks
Elektronik
Bewertung
Geschichten
[Tagesmessung] [Jahreswerte] [Information]

Messwerte vom 02.05.2022

Die letzten Messwerte von 23:58:46 Uhr:
KategorieMesswert
Temperatur [°C]12
Luftdruck [mBar]1002
Sonneneinstrahlung0
Wind [km/h]1 aus Nord
Niederschlag [l/m²]0
rel.Luftfeucht.63.2%
CO2 [ppm]736

Diagramme
Messwerte vom 02.05.2022
Tagesaggregation
KategorieMinimumMaximumSchnittSumme
Temperatur [°C]42613.5771
Luftdruck [mBar]100010061003.5729
Sonneneinstrahlung247132.5313
Wind [km/h]12
rF [%]33.991.865.14
Niederschlag [l/m²]0
CO2 [ppm]4211004733.1
Einordnung alsVegetationstag
Sommertag

Messungen an benachbarten Tagen: Zur Jahresaggregation 2022
Tabelle aller Messwerte
UhrzeitTemperatur [°C]Luftdruck [mBar]SonneWind [km/h]RichtungRegen [l/m²]rF [%]CO2 [ppm]
00:01:46 5 1006 0 0 N 0 87.4 787
00:04:49 5 1006 0 0 SO 0 87.4 785
00:07:45 5 1006 0 0 O 0 87.1 791
00:10:49 5 1006 0 0 NO 0 87.5 802
00:13:47 5 1006 0 0 O 0 87.8 798
00:16:46 5 1006 0 0 O 0 88.1 798
00:19:47 5 1006 0 0 O 0 88.3 796
00:22:47 5 1006 0 0 O 0 88.6 800
00:25:49 5 1006 0 0 O 0 89.8 800
00:28:50 5 1006 0 0 O 0 89.9 797
00:31:47 5 1006 0 0 O 0 89.7 801
00:34:45 5 1006 0 0 O 0 89.5 796
00:37:46 5 1006 0 0 O 0 89.6 794
00:40:47 5 1006 0 0 O 0 89.8 790
00:43:46 5 1006 0 0 N 0 90 790
00:46:46 5 1006 0 0 N 0 90.8 788
00:49:46 5 1006 0 0 N 0 91 788
00:52:47 5 1006 0 0 N 0 90.6 786
00:55:46 5 1006 0 0 N 0 90.8 785
00:58:46 5 1006 0 0 N 0 91 776
01:01:45 5 1006 0 0 N 0 91.1 776
01:04:45 5 1006 0 0 N 0 91 775
01:07:47 5 1006 0 0 N 0 90.9 780
01:10:46 4 1006 0 0 N 0 90.8 774
01:13:47 4 1006 0 0 N 0 90.5 779
01:16:45 4 1006 0 0 N 0 90.6 779
01:19:47 4 1006 0 0 N 0 90.8 784
01:22:45 4 1006 0 0 N 0 91 781
01:25:45 4 1006 0 0 N 0 91.4 776
01:28:46 4 1006 0 0 N 0 91.8 770
01:31:46 5 1006 0 0 N 0 91.8 767
01:34:44 4 1006 0 0 N 0 91.5 767
01:37:45 4 1006 0 0 N 0 91.3 759
01:40:46 4 1006 0 0 N 0 91.1 766
01:43:46 4 1006 0 0 N 0 91.1 772
01:46:46 4 1006 0 0 N 0 91 769
01:49:47 4 1006 0 0 N 0 91.2 772
01:52:44 5 1006 0 0 N 0 91.4 773
01:55:47 5 1006 0 0 N 0 91.8 773
01:58:45 5 1006 0 0 N 0 91.8 767
02:01:45 5 1006 0 0 N 0 91.7 761
02:04:46 5 1006 0 0 N 0 91.4 758
02:07:46 5 1006 0 0 N 0 91.3 761
02:10:46 6 1006 0 0 N 0 91.2 764
02:13:46 6 1006 0 0 N 0 91.3 766
02:16:46 6 1006 0 0 N 0 91.1 770
02:19:46 6 1006 0 0 N 0 90.3 773
02:22:45 6 1006 0 0 N 0 90 764
02:25:49 6 1006 0 0 N 0 89.7 765
02:28:46 6 1006 0 0 N 0 89.7 767
02:31:48 6 1006 0 0 N 0 89 765
02:34:48 6 1006 0 0 N 0 89 762
02:37:45 6 1006 0 0 N 0 89.2 762
02:40:46 7 1006 0 0 N 0 89 761
02:43:47 7 1006 0 0 N 0 88.7 762
02:46:48 7 1006 0 0 N 0 88.5 762
02:49:49 6 1006 0 0 N 0 88.3 757
02:52:47 6 1006 0 0 N 0 88.4 759
02:55:45 7 1006 0 0 N 0 88.5 756
02:58:47 7 1006 0 0 N 0 88.8 752
03:01:48 7 1006 0 0 N 0 88.5 749
03:04:46 7 1006 0 0 N 0 88.3 747
03:07:48 7 1005 0 0 N 0 88.2 745
03:10:46 7 1005 0 0 N 0 88.2 749
03:13:46 7 1006 0 0 N 0 88.1 747
03:16:45 7 1006 0 0 N 0 88.3 741
03:19:45 7 1005 0 0 N 0 88.3 743
03:22:48 7 1006 0 0 N 0 88.3 735
03:25:47 7 1006 0 0 N 0 87.9 735
03:28:46 7 1006 0 0 N 0 88.1 735
03:31:47 7 1006 0 0 N 0 87.9 743
03:34:45 7 1006 0 0 O 0 87.7 749
03:37:46 7 1006 0 0 O 0 87.7 747
03:40:45 7 1005 0 0 O 0 87.6 752
03:43:45 7 1005 0 0 O 0 87.5 752
03:46:46 7 1006 0 0 O 0 87.3 753
03:49:46 7 1005 0 0 O 0 87.3 755
03:52:46 6 1006 0 0 O 0 87.6 747
03:55:46 6 1006 0 0 O 0 87.9 744
03:58:45 6 1006 0 0 N 0 88.6 734
04:01:46 7 1006 0 0 N 0 89.1 735
04:04:49 7 1005 0 0 N 0 89.3 732
04:07:47 7 1006 0 0 N 0 88.8 737
04:10:45 7 1005 0 0 N 0 88.4 737
04:13:43 7 1005 0 0 N 0 88.3 734
04:16:46 7 1005 0 0 N 0 88.5 731
04:19:45 7 1006 0 0 N 0 88.5 738
04:22:46 7 1005 0 0 N 0 88.5 738
04:25:45 7 1005 0 0 N 0 89.1 738
04:28:46 7 1005 0 0 N 0 89.6 738
04:31:45 7 1006 0 0 N 0 89.7 738
04:34:46 7 1006 0 0 N 0 89.3 743
04:37:49 7 1005 0 0 N 0 88.7 744
04:40:46 7 1005 0 0 N 0 88.5 747
04:43:46 7 1005 0 0 N 0 88.4 735
04:46:46 7 1006 0 0 N 0 88.4 732
04:49:47 7 1005 0 0 N 0 89.5 730
04:52:47 7 1006 0 0 N 0 90.1 732
04:55:47 7 1005 0 0 N 0 90.1 732
04:58:49 7 1005 0 0 N 0 89.9 730
05:01:47 6 1006 0 0 N 0 89.9 733
05:04:47 6 1005 0 0 NO 0 90.2 733
05:07:47 6 1005 0 0 NO 0 90.9 733
05:10:48 6 1005 0 0 NO 0 90.2 735
05:13:48 6 1005 0 0 NO 0 90.2 736
05:16:46 6 1004 0 0 NO 0 90.5 735
05:19:46 6 1005 3 0 NO 0 90.4 735
05:22:45 6 1005 4 0 NO 0 90.3 737
05:25:48 6 1005 5 0 NO 0 90.3 729
05:28:47 6 1005 7 0 NO 0 90.2 733
05:31:48 6 1005 10 0 NO 0 90.2 733
05:34:47 7 1005 14 0 NO 0 90.8 735
05:37:48 7 1005 20 0 NO 0 91.7 733
05:40:48 7 1005 26 0 NO 0 91.4 735
05:43:50 7 1005 34 1 NO 0 90.9 729
05:46:46 7 1005 43 0 O 0 90.7 731
05:49:45 7 1004 48 0 O 0 90.6 735
05:52:46 7 1005 57 0 O 0 90.5 730
05:55:46 7 1005 70 0 O 0 90.4 733
05:58:46 7 1005 87 1 NO 0 90.4 735
06:01:49 7 1004 101 0 NO 0 90.1 735
06:04:47 7 1005 109 0 NO 0 90 739
06:07:49 7 1005 116 0 NO 0 89.7 733
06:10:46 7 1005 120 0 NO 0 89.5 735
06:13:51 7 1004 122 0 NO 0 89.4 733
06:16:49 7 1005 128 0 NO 0 89.7 729
06:19:47 7 1006 135 0 NO 0 89.6 729
06:22:47 7 1005 142 0 NO 0 89.6 731
06:25:47 7 1005 148 0 NO 0 89.6 738
06:28:48 7 1005 156 0 NO 0 90 741
06:31:48 7 1005 161 0 NO 0 90.1 739
06:34:49 7 1005 166 0 NO 0 90 736
06:37:49 7 1005 171 0 NO 0 89.9 730
06:40:47 8 1005 176 0 O 0 89.8 732
06:43:47 8 1004 180 0 O 0 89.7 727
06:46:48 8 1005 183 0 N 0 89.6 727
06:49:49 8 1004 186 0 NO 0 89.3 720
06:52:49 8 1005 188 1 N 0 89.4 727
06:55:47 9 1004 190 0 N 0 89.5 725
06:58:48 10 1005 192 0 N 0 88.6 727
07:01:50 10 1005 193 0 NW 0 83.9 724
07:04:48 11 1004 194 0 NO 0 83.3 726
07:07:50 12 1005 195 0 NO 0 80.4 718
07:10:50 12 1004 196 0 NO 0 78.3 723
07:13:48 13 1005 196 0 S 0 78.1 753
07:16:47 13 1005 197 1 N 0 72.2 766
07:19:49 12 1005 198 0 NO 0 71.3 768
07:22:48 12 1005 199 0 O 0 72.6 774
07:25:49 12 1005 201 0 O 0 73 782
07:28:48 12 1004 203 1 NO 0 74.7 778
07:31:49 12 1004 204 0 NO 0 74.3 764
07:34:49 13 1005 205 1 O 0 73.3 771
07:37:48 12 1004 207 0 O 0 72.3 780
07:40:48 12 1004 207 1 NO 0 71.6 785
07:43:46 12 1005 205 1 O 0 73.7 794
07:46:47 12 1005 205 4 O 0 74.3 795
07:49:47 11 1004 205 2 O 0 74 796
07:52:50 11 1004 207 0 NO 0 75.5 803
07:55:47 11 1005 209 0 O 0 76 803
07:58:46 11 1004 210 1 NO 0 75.7 816
08:01:49 12 1005 212 1 N 0 75.4 823
08:04:47 12 1005 213 2 O 0 74.8 834
08:07:48 12 1004 213 2 O 0 74.2 841
08:10:49 12 1005 213 4 NO 0 72 846
08:13:51 12 1004 212 0 O 0 72.3 846
08:16:47 13 1005 213 3 O 0 72.1 838
08:19:48 13 1005 213 3 O 0 69.2 840
08:22:49 13 1005 214 2 O 0 69.1 839
08:25:50 13 1004 212 2 O 0 69.7 844
08:28:49 13 1004 209 2 O 0 71.3 847
08:31:48 13 1004 207 2 SO 0 71.3 855
08:34:50 13 1005 208 3 SO 0 70.6 855
08:37:49 13 1005 206 0 SO 0 71.1 857
08:40:47 13 1004 204 3 O 0 71.9 855
08:43:47 13 1005 205 4 N 0 70 858
08:46:47 12 1005 203 1 N 0 69.7 861
08:49:49 12 1005 201 1 O 0 71.2 864
08:52:48 12 1005 200 1 SO 0 71.8 860
08:55:49 12 1005 201 2 S 0 72 867
08:58:48 12 1006 202 0 N 0 72.5 864
09:01:49 12 1005 206 2 SW 0 71.8 864
09:04:48 12 1005 210 0 NO 0 72 867
09:07:49 13 1005 213 3 N 0 71.6 870
09:10:48 13 1005 216 1 N 0 71.4 863
09:13:49 13 1005 217 0 NO 0 71.2 873
09:16:50 13 1005 217 1 NW 0 70.1 871
09:19:50 13 1005 215 1 NO 0 69.4 869
09:22:54 13 1005 214 1 SW 0 68.4 857
09:25:47 13 1005 213 2 O 0 68.4 863
09:28:48 13 1005 213 3 NO 0 69.1 867
09:31:48 13 1005 212 2 N 0 70.4 873
09:34:51 13 1004 212 2 O 0 69.6 882
09:37:48 13 1004 213 1 O 0 69.5 889
09:40:50 13 1005 214 0 W 0 70.1 900
09:43:48 13 1005 214 1 NO 0 70 896
09:46:49 13 1005 216 3 NO 0 69.5 893
09:49:50 13 1005 218 2 NW 0 68.6 898
09:52:53 14 1005 220 6 NO 0 68.9 897
09:55:49 14 1005 221 0 O 0 68.2 902
09:58:47 14 1005 222 4 N 0 68.1 901
10:01:50 14 1005 223 4 NO 0 65.9 902
10:04:49 14 1005 223 3 NO 0 65.7 902
10:07:49 15 1005 224 4 O 0 65.8 896
10:10:49 15 1005 223 1 S 0 65.3 893
10:13:49 15 1005 223 6 NO 0 63.8 908
10:16:47 15 1005 223 2 N 0 62.5 916
10:19:50 15 1004 223 3 NO 0 63.1 930
10:22:50 15 1005 223 2 NO 0 62.2 923
10:25:48 15 1005 223 5 NW 0 61.3 918
10:28:47 15 1005 224 1 O 0 61 934
10:31:49 16 1005 223 4 NO 0 60.8 938
10:34:32 14 1005 223 7 N 0 53.8 933
10:37:47 16 1005 223 1 O 0 59.6 929
10:40:48 16 1004 224 0 O 0 60.1 961
10:43:49 16 1005 224 1 SO 0 61 973
10:46:49 16 1005 225 3 O 0 58.8 969
10:49:49 17 1005 225 1 SW 0 58.7 961
10:52:47 17 1005 225 4 N 0 57.3 964
10:55:47 16 1006 226 6 W 0 57.1 984
10:58:50 16 1005 226 2 O 0 58.2 978
11:01:49 17 1004 226 2 N 0 59.3 980
11:04:50 17 1005 226 3 S 0 57.9 972
11:07:48 17 1005 226 7 SO 0 57.1 982
11:10:49 18 1004 226 1 O 0 55.9 997
11:13:47 18 1005 224 5 NO 0 54.9 998
11:16:48 17 1005 226 7 NO 0 53.8 998
11:19:48 17 1005 228 4 N 0 53.8 994
11:22:49 17 1005 228 2 NO 0 55.5 999
11:25:48 17 1005 229 2 NO 0 54.7 1002
11:28:51 17 1005 230 2 NO 0 53.6 1004
11:31:48 17 1005 229 2 N 0 52.9 994
11:34:48 17 1005 227 5 NO 0 53.2 995
11:37:50 18 1004 226 6 0 53.9 1001
11:40:49 18 1004 226 8 N 0 53.7 998
11:43:48 17 1004 224 3 NW 0 53.4 990
11:46:48 17 1005 223 0 NO 0 53.3 978
11:49:48 16 1004 223 2 NO 0 52.8 998
11:52:47 16 1005 221 4 N 0 53.7 1004
11:55:46 16 1005 196 4 N 0 54.2 749
11:58:49 16 1005 195 4 N 0 54.8 580
12:01:48 16 1004 219 3 W 0 55.4 559
12:04:47 17 1004 219 4 S 0 54.3 758
12:07:49 18 1003 182 3 SO 0 55 718
12:10:46 19 1004 182 12 N 0 47.4 574
12:13:47 18 1005 182 4 S 0 47.4 550
12:16:47 18 1004 186 2 NO 0 49.2 544
12:19:48 18 1004 187 1 NW 0 49.6 486
12:22:50 18 1004 188 2 SO 0 49.7 434
12:25:47 18 1004 187 1 O 0 49.3 439
12:28:48 18 1003 187 5 NW 0 47.8 456
12:31:49 18 1004 188 4 NO 0 48 475
12:34:48 18 1003 188 3 N 0 48.8 468
12:37:49 18 1003 189 5 N 0 49.6 454
12:40:48 19 1003 190 9 NW 0 48.1 454
12:43:48 18 1004 190 4 O 0 49.2 456
12:46:48 19 1004 191 8 S 0 51.9 459
12:49:48 20 1004 192 8 SO 0 49.4 448
12:52:48 21 1003 193 4 SO 0 48.4 433
12:55:30 18 1003 194 3 O 0 40 421
12:58:46 20 1004 194 5 N 0 44.1 437
13:01:46 19 1004 195 2 N 0 44.8 442
13:04:48 19 1003 223 3 NO 0 45 448
13:07:47 19 1003 226 3 N 0 45.7 481
13:10:47 19 1003 226 3 N 0 47.1 509
13:13:46 19 1003 227 7 N 0 46.3 516
13:16:49 19 1003 228 0 NO 0 46.8 519
13:19:49 19 1002 228 11 N 0 46.4 532
13:22:47 19 1003 228 7 N 0 46.3 539
13:25:48 19 1003 229 5 SW 0 46.4 543
13:28:50 20 1003 229 3 N 0 45.3 538
13:31:45 20 1003 229 2 0 45.7 541
13:34:47 20 1002 229 3 N 0 43.7 557
13:37:48 20 1003 230 1 SO 0 44.7 562
13:40:50 20 1002 230 5 NW 0 44.4 565
13:43:48 20 1002 229 1 NO 0 44.4 572
13:46:47 19 1003 232 2 S 0 45.4 574
13:49:47 20 1003 231 5 S 0 47.5 574
13:52:32 19 1003 233 5 NO 0 40 577
13:55:48 20 1002 232 4 NO 0 44.1 588
13:58:46 19 1003 232 5 O 0 45.5 593
14:01:49 19 1003 235 9 NW 0 44.8 598
14:04:51 19 1003 235 7 NW 0 45.9 608
14:07:48 19 1002 235 1 O 0 46.3 625
14:10:50 20 1003 236 5 S 0 47.8 624
14:13:31 18 1003 236 7 S 0 40 629
14:16:48 23 1002 237 1 O 0 39.6 630
14:19:49 21 1003 238 2 NO 0 39.2 633
14:22:31 19 1002 240 3 NO 0 40 635
14:25:48 21 1002 240 7 S 0 42.6 638
14:28:47 23 1002 241 3 SO 0 44.7 645
14:31:32 20 1002 242 8 S 0 40 650
14:34:48 24 1002 242 6 S 0 39.5 659
14:37:50 25 1002 242 1 NW 0 38.6 662
14:40:50 24 1002 242 3 NW 0 37.1 674
14:43:48 24 1002 242 7 S 0 37.1 682
14:46:49 24 1002 243 0 S 0 38.4 688
14:49:52 25 1002 243 2 W 0 38.5 685
14:52:48 25 1002 243 6 W 0 35.9 695
14:55:50 23 1002 243 4 NW 0 37.6 690
14:58:51 23 1002 244 0 SW 0 40 695
15:01:50 24 1002 244 1 NW 0 40.1 705
15:04:49 24 1002 244 6 NW 0 39.2 718
15:07:48 23 1002 244 6 NO 0 36.8 717
15:10:48 22 1002 244 5 N 0 37.5 722
15:13:48 22 1002 245 1 SO 0 41.1 720
15:16:46 22 1002 241 3 0 40.6 730
15:19:49 21 1002 245 7 NW 0 39.8 736
15:22:49 21 1002 245 3 W 0 41.2 732
15:25:48 21 1002 245 1 NW 0 42.1 737
15:28:48 22 1002 245 3 NW 0 42.6 744
15:31:45 22 1002 245 4 0 42.9 741
15:34:50 22 1002 245 3 W 0 40.8 735
15:37:48 24 1002 245 7 SO 0 40.3 738
15:40:49 24 1002 246 4 NW 0 38.5 744
15:43:49 24 1002 245 4 SW 0 37.8 744
15:46:49 24 1002 245 2 SO 0 35.8 752
15:49:46 25 1002 245 3 W 0 34.5 756
15:52:48 25 1002 246 3 S 0 36 750
15:55:48 25 1002 246 5 O 0 35 720
15:58:46 24 1002 233 5 S 0 34.3 696
16:01:52 24 1002 246 0 SO 0 36.2 682
16:04:49 24 1002 246 1 W 0 37.1 682
16:07:49 24 1002 246 8 NW 0 35.9 685
16:10:48 23 1002 247 4 S 0 36.8 687
16:13:51 23 1002 241 6 NW 0 38 687
16:16:49 23 1002 246 5 W 0 39 689
16:19:48 22 1002 246 5 N 0 39.8 688
16:22:47 21 1002 246 2 N 0 40.2 688
16:25:48 21 1002 231 8 0 41.8 691
16:28:50 20 1002 230 1 NW 0 42 692
16:31:50 19 1002 229 3 W 0 44.5 693
16:34:50 19 1002 230 2 NW 0 46.3 695
16:37:48 20 1002 231 5 NW 0 46.3 705
16:40:50 19 1002 234 6 NW 0 45.5 705
16:43:46 19 1002 245 2 0 46.1 695
16:46:48 21 1002 246 1 NW 0 47.1 691
16:49:49 22 1002 247 2 NW 0 45.7 688
16:52:49 23 1002 246 4 W 0 43.6 679
16:55:48 23 1002 246 7 W 0 39.4 671
16:58:48 24 1002 246 1 SO 0 39.4 674
17:01:49 23 1002 239 2 NO 0 38 676
17:04:32 22 1001 246 8 NW 0 40 673
17:07:49 23 1001 247 4 N 0 40.2 668
17:10:49 24 1002 246 1 SO 0 39.3 673
17:13:50 25 1002 246 2 SW 0 38.6 682
17:16:48 25 1002 239 1 S 0 35.8 676
17:19:49 25 1002 237 1 NW 0 36.5 679
17:22:49 24 1002 231 4 NW 0 36.6 687
17:25:50 23 1002 231 1 NW 0 37.5 685
17:28:51 22 1002 236 2 NW 0 41.3 685
17:31:48 22 1001 236 2 SW 0 41.4 685
17:34:50 22 1001 235 2 NW 0 41.4 688
17:37:51 23 1001 246 1 NW 0 41.5 688
17:40:31 21 1002 246 0 SO 0 40 693
17:43:48 25 1003 246 2 SW 0 35.1 695
17:46:48 26 1001 246 6 W 0 34.7 702
17:49:50 26 1001 246 1 S 0 34.4 702
17:52:45 26 1001 246 9 0 33.9 712
17:55:50 25 1001 245 1 NW 0 34.6 718
17:58:48 25 1001 246 0 N 0 34.6 721
18:01:48 26 1001 245 0 SO 0 34.3 731
18:04:48 25 1001 244 6 W 0 34.8 733
18:07:49 25 1001 242 2 SW 0 34.1 732
18:10:49 23 1000 227 1 W 0 36.2 729
18:13:48 22 1001 239 3 W 0 37.2 726
18:16:49 21 1002 234 1 NW 0 38.9 726
18:19:45 20 1001 230 5 N 0 40.9 731
18:22:46 19 1001 228 4 N 0 43.4 743
18:25:50 18 1001 226 6 NW 0 45.5 752
18:28:50 18 1003 228 5 SW 0 46.2 758
18:31:49 18 1002 237 0 NO 0 46.8 765
18:34:46 18 1001 231 4 0 47.7 772
18:37:45 18 1001 235 0 N 0 47.6 778
18:40:48 18 1001 227 2 N 0 48.2 788
18:43:52 18 1000 223 2 NW 0 47.5 796
18:46:50 18 1001 221 4 NW 0 47.4 802
18:49:49 18 1001 227 0 NW 0 47.1 804
18:52:46 18 1002 228 0 N 0 47.7 805
18:55:51 18 1001 225 0 NO 0 47.6 808
18:58:47 18 1000 226 0 W 0 47.5 809
19:01:49 18 1001 225 1 W 0 47.6 812
19:04:48 18 1000 225 2 W 0 47.3 811
19:07:49 18 1000 227 3 SW 0 47 811
19:10:47 18 1000 221 2 N 0 47 823
19:13:49 17 1001 219 1 NO 0 47.7 828
19:16:46 17 1001 220 1 SO 0 48.4 831
19:19:49 17 1001 220 5 W 0 48.9 828
19:22:51 17 1000 228 6 NW 0 48 820
19:25:47 17 1001 222 4 W 0 47.4 817
19:28:48 17 1001 221 1 NW 0 47.3 814
19:31:48 17 1000 215 2 N 0 47.7 808
19:34:49 17 1001 211 5 N 0 48.3 806
19:37:50 17 1000 209 4 NW 0 48.1 799
19:40:48 17 1001 207 9 NW 0 48.5 798
19:43:52 17 1001 206 7 NW 0 48.4 794
19:46:47 17 1001 204 9 W 0 48.7 785
19:49:50 17 1000 200 3 W 0 48.5 782
19:52:49 16 1000 197 4 NW 0 48.9 788
19:55:48 16 1000 194 4 N 0 48.8 786
19:58:49 16 1001 191 3 NW 0 49.6 781
20:01:48 16 1001 188 4 W 0 49.7 773
20:04:49 16 1001 52 1 NW 0 50.1 726
20:07:48 16 1000 115 1 NW 0 50.4 483
20:10:51 16 1001 110 1 SO 0 50.6 434
20:13:47 16 1001 104 4 N 0 50.8 424
20:16:48 16 1001 87 4 NW 0 50.8 421
20:19:48 16 1002 157 2 NO 0 51.1 421
20:22:48 15 1002 150 1 NO 0 51.6 421
20:25:48 15 1002 143 1 N 0 53 454
20:28:46 15 1001 134 0 O 0 53.9 511
20:31:50 15 1001 125 0 O 0 55.1 519
20:34:49 14 1001 116 0 N 0 55.6 525
20:37:50 14 1002 106 0 NO 0 56.6 523
20:40:47 14 1001 94 0 SO 0 57.3 530
20:43:47 14 1001 83 1 NO 0 57.8 521
20:46:48 13 1003 71 0 NO 0 59.4 524
20:49:48 13 1001 59 0 NO 0 59.3 526
20:52:47 13 1001 47 0 O 0 59.7 538
20:55:45 13 1002 37 0 O 0 60.6 541
20:58:52 13 1001 29 0 O 0 61.7 542
21:01:49 13 1002 22 0 O 0 61.7 550
21:04:47 12 1002 16 0 O 0 62.5 558
21:07:48 12 1002 12 0 O 0 62.9 562
21:10:47 12 1002 9 0 O 0 63.4 562
21:13:47 12 1001 6 0 SO 0 64 562
21:16:47 12 1002 5 0 SO 0 65.4 568
21:19:49 12 1002 4 0 SO 0 66.3 580
21:22:49 11 1002 3 0 SO 0 66.9 583
21:25:49 11 1001 3 0 SO 0 67.6 586
21:28:49 11 1001 0 0 SO 0 68.5 597
21:31:47 11 1002 0 0 SO 0 68.4 600
21:34:47 11 1001 0 0 SO 0 68.1 611
21:37:47 11 1002 0 0 SO 0 68.8 624
21:40:48 11 1002 0 0 SO 0 69.7 630
21:43:49 10 1002 0 0 SO 0 69 630
21:46:47 10 1002 0 0 SO 0 69 637
21:49:49 10 1002 0 0 SO 0 69.3 633
21:52:48 10 1002 0 0 SO 0 69.9 647
21:55:48 10 1002 0 0 SO 0 69.9 644
21:58:46 10 1002 0 0 SO 0 70.2 644
22:01:47 10 1002 0 0 SO 0 70.9 653
22:04:49 10 1002 0 0 SO 0 71.4 667
22:07:49 10 1002 0 0 SO 0 71.7 670
22:10:47 9 1002 0 0 SO 0 71.5 665
22:13:45 9 1002 0 0 SO 0 71.6 677
22:16:47 9 1002 0 0 NW 0 73.1 682
22:19:51 9 1002 0 0 NW 0 74.3 688
22:22:49 9 1002 0 0 NW 0 73.7 682
22:25:49 9 1002 0 0 NW 0 73.8 689
22:28:49 9 1002 0 0 NW 0 74.8 696
22:31:48 9 1002 0 0 NW 0 75.5 704
22:34:47 9 1002 0 0 SO 0 75.8 702
22:37:49 9 1002 0 1 NW 0 76.3 709
22:40:46 10 1002 0 3 N 0 77.2 708
22:43:48 10 1002 0 6 NW 0 76.8 708
22:46:47 11 1002 0 7 N 0 72.3 709
22:49:46 11 1002 0 4 NW 0 71.6 714
22:52:46 12 1002 0 5 W 0 69.4 720
22:55:48 12 1002 0 7 NW 0 67.9 728
22:58:46 12 1002 0 6 N 0 67.2 732
23:01:48 12 1002 0 3 NW 0 66.5 743
23:04:47 12 1002 0 3 W 0 65.9 743
23:07:47 12 1002 0 5 N 0 65.1 741
23:10:46 12 1002 0 2 NO 0 64.5 746
23:13:47 12 1002 0 4 NW 0 64.4 747
23:16:46 12 1002 0 2 N 0 64.3 741
23:19:47 12 1002 0 5 NO 0 64.2 736
23:22:48 12 1002 0 2 NW 0 64.3 729
23:25:47 12 1002 0 5 NO 0 64.1 724
23:28:47 12 1002 0 6 N 0 64.5 726
23:31:48 12 1002 0 5 NO 0 64.2 732
23:34:48 12 1002 0 1 SO 0 63.5 738
23:37:46 12 1002 0 2 NW 0 63.1 741
23:40:48 12 1002 0 0 NO 0 63 741
23:43:48 12 1003 0 1 N 0 63.1 734
23:46:47 12 1002 0 2 O 0 63.8 738
23:49:48 12 1002 0 6 NO 0 63.8 738
23:52:46 12 1002 0 4 NO 0 63.4 737
23:55:47 12 1002 0 1 0 63.2 738
23:58:46 12 1002 0 1 N 0 63.2 736

Letzte Änderung : 22-Jul-2022
Copyright Jens Köhler, Wolfsburg, Obere Dorfstraße 10d